This is the latest recevied weather packets stored in our database for station/object EA7AVH-10. If no packets are shown the sender has not sent any weather packets the latest 10 day(s).
| Time | Temp. | Humidity | Pressure | Rain* | Wind** | Luminosity | Snow |
|---|---|---|---|---|---|---|---|
| 1777876342 | 16.67° C | 67% | 921 hPa | - | - | - | - |
| 1777875441 | 17.22° C | 68% | 921.1 hPa | - | - | - | - |
| 1777874540 | 16.11° C | 68% | 921 hPa | - | - | - | - |
| 1777873639 | 16.67° C | 68% | 920.9 hPa | - | - | - | - |
| 1777872739 | 12.22° C | 74% | 920.9 hPa | - | - | - | - |
| 1777871837 | 11.67° C | 75% | 920.7 hPa | - | - | - | - |
| 1777870956 | 11.11° C | 75% | 920.6 hPa | - | - | - | - |
| 1777870055 | 11.67° C | 74% | 920.5 hPa | - | - | - | - |
| 1777869154 | 11.67° C | 74% | 920.6 hPa | - | - | - | - |
| 1777868253 | 11.67° C | 74% | 920.5 hPa | - | - | - | - |
| 1777867352 | 11.67° C | 74% | 920.7 hPa | - | - | - | - |
| 1777866452 | 12.22° C | 74% | 920.7 hPa | - | - | - | - |
| 1777865551 | 12.22° C | 74% | 920.9 hPa | - | - | - | - |
| 1777864650 | 12.22° C | 74% | 920.9 hPa | - | - | - | - |
| 1777863749 | 12.22° C | 74% | 920.9 hPa | - | - | - | - |
| 1777862848 | 12.78° C | 74% | 920.8 hPa | - | - | - | - |
| 1777861948 | 12.78° C | 73% | 920.9 hPa | - | - | - | - |
| 1777861047 | 12.78° C | 73% | 920.9 hPa | - | - | - | - |
| 1777860146 | 13.33° C | 72% | 921 hPa | - | - | - | - |
| 1777859245 | 13.33° C | 73% | 921.2 hPa | - | - | - | - |
| 1777858344 | 13.33° C | 73% | 921.2 hPa | - | - | - | - |
| 1777857444 | 13.33° C | 73% | 921.2 hPa | - | - | - | - |
| 1777856543 | 12.78° C | 74% | 921.2 hPa | - | - | - | - |
| 1777855642 | 13.33° C | 74% | 921.3 hPa | - | - | - | - |
| 1777854741 | 13.33° C | 74% | 921.5 hPa | - | - | - | - |
* Rain since midnight (hover to see other rain measurements)
** Current wind speed in m/s (hover to see current wind gust speed)